Home > Weather > Bursa > Past weeks

Flag for Turkey Past Weather in Bursa, Turkey — Yesterday and Last 2 Weeks

Now
67 °F

Passing clouds.


Feels Like: 67 °F
Forecast: 67 / 84 °F
Wind: 2 mph from Southwest

Location: Bursa

Current Time: Aug 28, 2016 at 8:22:37 AM

Latest Report: Aug 28, 2016 at 6:00 AM


Visibility: 9 mi

Pressure: 29.99 "Hg

Humidity: 86%

Dew Point: 62 °F

Location of BursaLocation

Past Weather in Bursa — Graph

°F

Bursa Temperature Yesterday

Maximum temperature yesterday: 85 °F (at 1:00 PM)
Minimum temperature yesterday: 64 °F (at 5:00 AM)
Average temperature yesterday: 75 °F

High & Low Weather Summary for the Past Weeks

 TemperatureHumidityPressure
High94 °F (Aug 19, 4:00 PM)96% (Aug 13, 4:00 PM)30.13 "Hg (Aug 13, 4:00 PM)
Low60 °F (Aug 16, 6:00 AM)23% (Aug 18, 1:00 PM)29.76 "Hg (Aug 18, 6:00 PM)
Average78 °F66%29.93 "Hg
* Reported Aug 13 6:00 AM — Aug 28 6:00 AM, Bursa, Weather by CustomWeather, © 2016

Note: Actual official high and low records may vary slightly from our data, if they occured in-between our weather recording intervals... More about our weather records

Advertising

Bursa Weather History for the Previous 24 Hours

Scroll right to see more
 ConditionsComfort  
Time TempWeatherWind HumidityBarometerVisibility
6:00 AM
Sun, Aug 28
67 °FPassing clouds.2 mph86%29.99 "Hg9 mi
5:00 AM68 °FClear.1 mph86%29.98 "Hg9 mi
4:00 AM69 °FClear.3 mph82%29.99 "Hg9 mi
3:00 AM69 °FClear.3 mph84%29.99 "Hg9 mi
2:00 AM70 °FClear.2 mph82%30.00 "Hg9 mi
1:00 AM71 °FClear.6 mph78%30.01 "Hg9 mi
12:00 AM72 °FPassing clouds.7 mph76%30.02 "Hg9 mi
11:00 PM
Sat, Aug 27
73 °FPassing clouds.8 mph72%30.02 "Hg9 mi
10:00 PM75 °FPassing clouds.12 mph68%30.02 "Hg9 mi
9:00 PM76 °FPassing clouds.7 mph64%30.01 "Hg9 mi
8:00 PM78 °FPassing clouds.15 mph59%29.99 "Hg9 mi
7:00 PM80 °FPartly sunny.10 mph53%29.98 "Hg9 mi
6:00 PM82 °FPartly sunny.14 mph52%29.98 "Hg9 mi
5:00 PM84 °FPartly sunny.15 mph51%29.97 "Hg9 mi
4:00 PM83 °FScattered clouds.14 mph53%29.97 "Hg9 mi
3:00 PM83 °FPartly sunny.13 mph51%29.98 "Hg9 mi
2:00 PM83 °FScattered clouds.15 mph49%29.99 "Hg9 mi
1:00 PM85 °FScattered clouds.10 mph48%29.99 "Hg9 mi
12:00 PM83 °FScattered clouds.7 mph50%30.02 "Hg9 mi
11:00 AM80 °FScattered clouds.10 mph56%30.03 "Hg9 mi
10:00 AM78 °FScattered clouds.6 mph63%30.03 "Hg9 mi
9:00 AM76 °FSunny.3 mph69%30.03 "Hg7 mi
8:00 AM71 °FSunny.2 mph78%30.03 "Hg7 mi
Weather by CustomWeather, © 2016

See weather overviewHow to use our weather pages